Tracking 29892 objects as of 21-Nov-2024
HD Live streaming from Space Station
objects crossing your sky now

NOAA 16 DEB

Track NOAA 16 DEB now!
10-day predictions


NORAD ID: 41374
Int'l Code: 2000-055JT
Perigee: 824.1 km
Apogee: 872.3 km
Inclination: 98.7 °
Period: 101.7 minutes
Semi major axis: 7219 km
RCS: Unknown
Launch date: September 21, 2000
Source: United States (US)
Launch site: AIR FORCE WESTERN TEST RANGE (AFWTR)

Note: This is SATELLITE DEBRIS
Your satellite tracking list
Your tracking list is empty




NASA's NSSDC Master Catalog

Two Line Element Set (TLE):
1 41374U 00055JT  24326.08148993  .00005090  00000-0  26184-2 0  9995
2 41374  98.7462  13.9449 0033356  12.6278 347.5724 14.15364305454246
Source of the keplerian elements: AFSPC